Prairie Du Chien, WI

8:01 PM CDT on August 19, 2017 (GMT -0500)
Prairie Du Chien Municipal

Weather History for KPDC - February, 2014

Change the Weather History Date:

Monday, February 17, 2014

  Actual Average Record
Temperature  
Mean Temperature 26 °F -  
Max Temperature 32 °F 34 °F 64 °F (1981)
Min Temperature 19 °F 13 °F -25 °F (1979)
Degree Days  
Heating Degree Days 40    
Moisture  
Dew Point 19 °F    
Average Humidity 80    
Maximum Humidity 91    
Minimum Humidity 73    
Precipitation  
Precipitation 0.00 in - - ()
Sea Level Pressure  
Sea Level Pressure 29.87 in    
Wind  
Wind Speed 9 mph (SE)    
Max Wind Speed 17 mph    
Max Gust Speed 24 mph    
Visibility 6 miles    
Events Snow    
Averages and records for this station are not official NWS values.
T = Trace of Precipitation, MM = Missing Value Source: NWS Daily Summary

Daily Weather History Graph

Daily Weather History Graph

Search for Another Location

Airport or City:

Trip Planner

Search our weather history database for the weather conditions in past years. The results will help you decide how hot, cold, wet, or windy it might be!

Date:

Astronomy

Feb. 17, 2014 Rise Set
Actual Time 6:59 AM CST 5:38 PM CST
Civil Twilight 6:30 AM CST 6:07 PM CST
Nautical Twilight 5:56 AM CST 6:40 PM CST
Astronomical Twilight 5:24 AM CST 7:13 PM CST
Moon 8:39 PM CST (2/17) 7:54 AM CST (2/17)
Length of Visible Light 11h 37m
Length of Day
10h 39m
Waning Gibbous, 93% of the Moon is Illuminated
Feb 17
Waning Gibbous
Feb 22
Last Quarter
Mar 1
New
Mar 8
First Quarter
Mar 16
Full

Hourly Weather History & Observations

Time (CST) Temp. Windchill Dew Point Humidity Pressure Visibility Wind Dir Wind Speed Gust Speed Precip Events Conditions
12:15 AM 20.1 °F 8.8 °F 12.7 °F 73% 30.17 in 10.0 mi ESE 10.4 mph - N/A   Mostly Cloudy
12:35 AM 20.1 °F 8.8 °F 12.9 °F 74% 30.17 in 10.0 mi ESE 10.4 mph - N/A   Overcast
12:55 AM 19.8 °F 7.7 °F 12.9 °F 75% 30.15 in 10.0 mi ESE 11.5 mph - N/A   Overcast
1:15 AM 19.8 °F 7.1 °F 13.5 °F 77% 30.13 in 10.0 mi East 12.7 mph - N/A   Overcast
1:35 AM 19.9 °F 9.3 °F 14.0 °F 78% 30.13 in 10.0 mi ESE 9.2 mph - N/A   Overcast
1:55 AM 20.1 °F 11.3 °F 14.0 °F 77% 30.14 in 10.0 mi ESE 6.9 mph - N/A   Overcast
2:15 AM 20.3 °F 10.6 °F 14.2 °F 77% 30.13 in 10.0 mi East 8.1 mph - N/A   Overcast
2:35 AM 20.8 °F 10.4 °F 14.4 °F 76% 30.12 in 10.0 mi East 9.2 mph - N/A   Overcast
2:55 AM 21.2 °F 8.9 °F 14.5 °F 75% 30.09 in 10.0 mi ESE 12.7 mph - N/A   Overcast
3:15 AM 21.7 °F 10.8 °F 14.9 °F 75% 30.08 in 10.0 mi ESE 10.4 mph 16.1 mph N/A   Overcast
3:35 AM 21.9 °F 12.5 °F 15.1 °F 75% 30.06 in 10.0 mi SE 8.1 mph 23.0 mph N/A   Overcast
3:55 AM 22.5 °F 10.5 °F 15.4 °F 74% 30.04 in 10.0 mi ESE 12.7 mph - N/A   Overcast
4:15 AM 22.8 °F 10.9 °F 15.4 °F 73% 30.04 in 10.0 mi SE 12.7 mph 16.1 mph N/A   Overcast
4:35 AM 22.6 °F 10.7 °F 15.4 °F 74% 30.01 in 10.0 mi ESE 12.7 mph 24.2 mph N/A   Overcast
4:55 AM 22.6 °F 10.7 °F 15.6 °F 74% 30.01 in 10.0 mi ESE 12.7 mph 21.9 mph N/A   Overcast
5:15 AM 22.8 °F 10.9 °F 15.6 °F 74% 29.99 in 10.0 mi ESE 12.7 mph 21.9 mph N/A   Overcast
5:35 AM 23.0 °F 11.7 °F 15.6 °F 73% 29.98 in 10.0 mi ESE 11.5 mph 18.4 mph N/A   Overcast
5:55 AM 23.0 °F 9.6 °F 15.6 °F 73% 29.95 in 10.0 mi ESE 16.1 mph 20.7 mph N/A   Overcast
6:15 AM 23.0 °F 9.2 °F 15.8 °F 74% 29.93 in 10.0 mi ESE 17.3 mph 23.0 mph N/A   Overcast
6:35 AM 23.0 °F 10.6 °F 15.8 °F 74% 29.91 in 10.0 mi ESE 13.8 mph 24.2 mph N/A   Overcast
6:55 AM 23.0 °F 10.6 °F 15.8 °F 74% 29.90 in 7.0 mi ESE 13.8 mph - N/A   Overcast
7:15 AM 22.1 °F 8.9 °F 16.7 °F 80% 29.90 in 2.0 mi ESE 15.0 mph 19.6 mph N/A Snow Light Snow
7:35 AM 22.1 °F 8.9 °F 17.2 °F 82% 29.89 in 3.0 mi ESE 15.0 mph 21.9 mph N/A Snow Light Snow
7:55 AM 22.1 °F 10.0 °F 17.1 °F 81% 29.88 in 3.0 mi ESE 12.7 mph 19.6 mph N/A   Overcast
8:15 AM 22.5 °F 8.9 °F 16.7 °F 79% 29.87 in 3.0 mi ESE 16.1 mph 21.9 mph N/A Snow Light Snow
8:35 AM 22.1 °F 9.5 °F 18.1 °F 85% 29.87 in 1.2 mi ESE 13.8 mph 18.4 mph N/A Snow Light Snow
8:55 AM 22.1 °F 9.5 °F 18.3 °F 85% 29.85 in 0.8 mi ESE 13.8 mph - N/A Snow Light Snow
9:15 AM 21.9 °F 11.7 °F 18.7 °F 87% 29.84 in 0.5 mi ESE 9.2 mph 17.3 mph N/A Snow Light Snow
9:35 AM 22.3 °F 12.2 °F 18.9 °F 87% 29.84 in 0.8 mi ESE 9.2 mph - N/A Snow Light Snow
9:55 AM 22.6 °F 12.6 °F 19.2 °F 87% 29.84 in 0.8 mi ESE 9.2 mph - N/A Snow Light Snow
10:15 AM 22.8 °F - 19.6 °F 87% 29.86 in 0.8 mi Calm Calm - N/A Snow Light Snow
10:35 AM 23.0 °F 17.0 °F 20.3 °F 89% 29.84 in 0.5 mi ESE 4.6 mph - N/A Snow Light Snow
10:55 AM 23.0 °F 18.4 °F 20.5 °F 90% 29.81 in 0.5 mi ESE 3.5 mph - N/A Snow Snow
11:15 AM 23.9 °F 16.8 °F 20.7 °F 87% 29.81 in 0.8 mi SE 5.8 mph - N/A Snow Light Snow
11:35 AM 24.4 °F 20.1 °F 21.2 °F 87% 29.81 in 0.5 mi SE 3.5 mph - N/A Snow Snow
11:55 AM 24.4 °F 14.9 °F 21.4 °F 88% 29.79 in 0.2 mi ESE 9.2 mph - N/A Snow Snow
12:15 PM 24.6 °F 17.7 °F 21.0 °F 86% 29.77 in 1.2 mi ESE 5.8 mph - N/A Snow Light Snow
12:35 PM 25.0 °F 20.7 °F 20.7 °F 84% 29.76 in 2.0 mi SE 3.5 mph - N/A   Overcast
12:55 PM 25.2 °F 19.5 °F 20.1 °F 81% 29.75 in 2.5 mi SE 4.6 mph - N/A   Overcast
1:15 PM 25.3 °F 16.7 °F 19.4 °F 78% 29.75 in 5.0 mi SSE 8.1 mph - N/A   Overcast
1:35 PM 25.7 °F 21.5 °F 20.3 °F 80% 29.74 in 1.5 mi SSE 3.5 mph - N/A Snow Light Snow
1:55 PM 25.7 °F 20.1 °F 21.0 °F 82% 29.73 in 1.2 mi SE 4.6 mph - N/A Snow Light Snow
2:15 PM 25.7 °F - 21.6 °F 84% 29.72 in 1.0 mi Calm Calm - N/A Snow Light Snow
2:35 PM 25.7 °F - 21.7 °F 85% 29.71 in 1.2 mi Calm Calm - N/A Snow Light Snow
2:55 PM 25.9 °F 19.2 °F 21.7 °F 84% 29.71 in 1.2 mi South 5.8 mph - N/A Snow Light Snow
3:15 PM 26.6 °F 22.6 °F 22.1 °F 83% 29.70 in 2.5 mi South 3.5 mph - N/A   Overcast
3:35 PM 26.6 °F 21.2 °F 21.9 °F 82% 29.70 in 3.0 mi SSW 4.6 mph - N/A   Overcast
3:55 PM 27.0 °F - 22.5 °F 83% 29.71 in 5.0 mi Calm Calm - N/A   Overcast
4:15 PM 27.1 °F - 22.6 °F 83% 29.71 in 7.0 mi Calm Calm - N/A   Overcast
4:35 PM 27.9 °F - 22.8 °F 81% 29.71 in 7.0 mi Calm Calm - N/A   Overcast
4:55 PM 28.0 °F - 23.0 °F 81% 29.71 in 7.0 mi Calm Calm - N/A   Overcast
5:15 PM 28.4 °F - 23.0 °F 80% 29.71 in 7.0 mi Calm Calm - N/A   Overcast
5:35 PM 28.4 °F - 23.5 °F 82% 29.72 in 5.0 mi Calm Calm - N/A   Haze
5:55 PM 28.4 °F - 23.7 °F 83% 29.73 in 7.0 mi Calm Calm - N/A   Overcast
6:15 PM 30.9 °F 21.7 °F 25.5 °F 80% 29.73 in 7.0 mi West 11.5 mph - N/A   Overcast
6:35 PM 32.0 °F 23.6 °F 25.7 °F 78% 29.74 in 10.0 mi WNW 10.4 mph - N/A   Overcast
6:55 PM 32.0 °F 23.6 °F 25.7 °F 78% 29.74 in 10.0 mi WNW 10.4 mph - N/A   Overcast
7:15 PM 31.8 °F 23.3 °F 25.0 °F 76% 29.75 in 10.0 mi West 10.4 mph - N/A   Overcast
7:35 PM 31.8 °F 22.3 °F 24.8 °F 75% 29.77 in 10.0 mi West 12.7 mph 17.3 mph N/A   Overcast
7:55 PM 30.7 °F 23.3 °F 23.7 °F 75% 29.77 in 10.0 mi WNW 8.1 mph - N/A   Overcast
8:15 PM 29.1 °F 22.1 °F 22.8 °F 77% 29.77 in 10.0 mi WNW 6.9 mph - N/A   Scattered Clouds
8:35 PM 27.9 °F 19.1 °F 22.1 °F 79% 29.79 in 10.0 mi West 9.2 mph - N/A   Scattered Clouds
8:55 PM 28.9 °F 21.1 °F 23.0 °F 78% 29.81 in 10.0 mi West 8.1 mph - N/A   Mostly Cloudy
9:15 PM 29.5 °F 22.5 °F 23.5 °F 79% 29.82 in 10.0 mi West 6.9 mph - N/A   Overcast
9:35 PM 26.6 °F 18.2 °F 21.2 °F 80% 29.82 in 10.0 mi West 8.1 mph - N/A   Scattered Clouds
9:55 PM 25.7 °F 18.0 °F 20.7 °F 81% 29.83 in 10.0 mi WNW 6.9 mph - N/A   Clear
10:15 PM 25.0 °F 19.3 °F 21.2 °F 86% 29.84 in 10.0 mi West 4.6 mph - N/A   Clear
10:35 PM 25.3 °F 19.7 °F 21.7 °F 86% 29.84 in 10.0 mi WNW 4.6 mph - N/A   Clear
10:55 PM 24.4 °F 14.9 °F 20.1 °F 84% 29.84 in 10.0 mi WNW 9.2 mph - N/A   Clear
11:15 PM 21.2 °F 13.6 °F 18.3 °F 89% 29.84 in 10.0 mi West 5.8 mph - N/A   Clear
11:35 PM 21.7 °F 15.5 °F 19.4 °F 91% 29.86 in 10.0 mi West 4.6 mph - N/A   Clear
11:55 PM 23.0 °F 17.0 °F 20.5 °F 90% 29.86 in 10.0 mi West 4.6 mph - N/A   Clear